When you browse on this site, cookies collect data to enhance your experience and personalize the content and advertising you see.
Visit our Privacy Policy to learn more. By continuing to use the site, you agree to this use of cookies and data.
  • în România
  • Lista ţărilor
  • Pe 7 zile
  • Temperatura apei
  • Meteo pe hartă
  • Widget-uri
  • user-avatar
    Intrare

    Meteo pe oră la Sumgait

    Astăzi, 21 Octombrie, Luni

    Timp Temperatura Precipitaţii Vânt Presiune Umiditate
    00:00 +16°C° 0 mm 3 m/s 746 mmHg 72%
    01:00 +14°C° 0 mm 3 m/s 746 mmHg 73%
    02:00 +14°C° 0 mm 3 m/s 745 mmHg 75%
    03:00 +13°C° 0 mm 3 m/s 745 mmHg 78%
    04:00 +13°C° 0 mm 3 m/s 745 mmHg 79%
    05:00 +13°C° 0 mm 3 m/s 746 mmHg 79%
    06:00 +12°C° 0 mm 3 m/s 746 mmHg 79%
    07:00 +14°C° 0 mm 3 m/s 746 mmHg 70%
    08:00 +17°C° 0 mm 4 m/s 746 mmHg 61%
    09:00 +18°C° 0 mm 4 m/s 747 mmHg 52%
    10:00 +19°C° 0 mm 5 m/s 747 mmHg 48%
    11:00 +20°C° 0 mm 5 m/s 747 mmHg 45%
    12:00 +21°C° 0 mm 5 m/s 747 mmHg 41%
    13:00 +21°C° 0 mm 5 m/s 746 mmHg 44%
    14:00 +20°C° 0 mm 6 m/s 746 mmHg 47%
    15:00 +20°C° 0 mm 6 m/s 746 mmHg 50%
    16:00 +19°C° 0 mm 6 m/s 746 mmHg 56%
    17:00 +17°C° 0 mm 5 m/s 746 mmHg 63%
    18:00 +16°C° 0 mm 5 m/s 746 mmHg 69%
    19:00 +15°C° 0 mm 4 m/s 746 mmHg 70%
    20:00 +15°C° 0 mm 4 m/s 746 mmHg 71%
    21:00 +15°C° 0 mm 4 m/s 746 mmHg 73%
    22:00 +14°C° 0 mm 4 m/s 746 mmHg 73%
    23:00 +14°C° 0 mm 3 m/s 746 mmHg 73%

    Mâine, 22 Octombrie, Marţi

    Timp Temperatura Precipitaţii Vânt Presiune Umiditate
    00:00 +14°C° 0 mm 3 m/s 746 mmHg 74%
    01:00 +14°C° 0 mm 3 m/s 745 mmHg 75%
    02:00 +14°C° 0 mm 2 m/s 745 mmHg 76%
    03:00 +14°C° 0 mm 2 m/s 745 mmHg 77%
    04:00 +14°C° 0 mm 2 m/s 745 mmHg 78%
    05:00 +13°C° 0 mm 1 m/s 745 mmHg 79%
    06:00 +13°C° 0 mm 1 m/s 745 mmHg 80%
    07:00 +15°C° 0 mm 1 m/s 745 mmHg 73%
    08:00 +16°C° 0 mm 1 m/s 745 mmHg 65%
    09:00 +18°C° 0 mm 2 m/s 746 mmHg 58%
    10:00 +18°C° 0 mm 2 m/s 745 mmHg 54%
    11:00 +19°C° 0 mm 2 m/s 745 mmHg 49%
    12:00 +20°C° 0 mm 2 m/s 745 mmHg 45%
    13:00 +20°C° 0 mm 3 m/s 745 mmHg 46%
    14:00 +20°C° 0 mm 4 m/s 744 mmHg 47%
    15:00 +20°C° 0 mm 4 m/s 744 mmHg 47%
    16:00 +19°C° 0 mm 4 m/s 744 mmHg 53%
    17:00 +18°C° 0 mm 4 m/s 745 mmHg 59%
    18:00 +17°C° 0 mm 3 m/s 745 mmHg 65%
    19:00 +16°C° 0 mm 3 m/s 745 mmHg 68%
    20:00 +16°C° 0 mm 3 m/s 745 mmHg 71%
    21:00 +16°C° 0 mm 2 m/s 745 mmHg 73%
    22:00 +15°C° 0 mm 2 m/s 745 mmHg 74%
    23:00 +15°C° 0 mm 2 m/s 745 mmHg 76%

    Poimâine, 23 Octombrie, Miercuri

    Timp Temperatura Precipitaţii Vânt Presiune Umiditate
    00:00 +15°C° 0 mm 2 m/s 744 mmHg 77%
    01:00 +15°C° 0 mm 2 m/s 744 mmHg 78%
    02:00 +14°C° 0 mm 1 m/s 744 mmHg 78%
    03:00 +14°C° 0 mm 1 m/s 744 mmHg 79%
    04:00 +14°C° 0 mm 1 m/s 744 mmHg 80%
    05:00 +14°C° 0 mm 1 m/s 744 mmHg 80%
    06:00 +14°C° 0 mm 1 m/s 744 mmHg 80%
    07:00 +15°C° 0 mm 2 m/s 745 mmHg 75%
    08:00 +16°C° 0 mm 2 m/s 745 mmHg 69%
    09:00 +17°C° 0 mm 2 m/s 745 mmHg 64%
    10:00 +18°C° 0 mm 2 m/s 745 mmHg 60%
    11:00 +19°C° 0 mm 2 m/s 745 mmHg 56%
    12:00 +19°C° 0 mm 2 m/s 745 mmHg 52%
    13:00 +19°C° 0 mm 2 m/s 745 mmHg 53%
    14:00 +19°C° 0 mm 2 m/s 745 mmHg 55%
    15:00 +19°C° 0 mm 3 m/s 744 mmHg 57%
    16:00 +18°C° 0 mm 3 m/s 745 mmHg 61%
    17:00 +17°C° 0 mm 3 m/s 745 mmHg 66%
    18:00 +16°C° 0 mm 3 m/s 745 mmHg 71%
    19:00 +16°C° 0 mm 2 m/s 745 mmHg 72%
    20:00 +15°C° 0 mm 2 m/s 745 mmHg 74%
    21:00 +15°C° 0 mm 2 m/s 745 mmHg 76%
    22:00 +15°C° 0 mm 1 m/s 745 mmHg 77%
    23:00 +14°C° 0 mm 1 m/s 745 mmHg 79%

    24 Octombrie, Joi

    Timp Temperatura Precipitaţii Vânt Presiune Umiditate
    00:00 +14°C° 0 mm 1 m/s 745 mmHg 80%
    01:00 +14°C° 0 mm 1 m/s 744 mmHg 82%
    02:00 +13°C° 0 mm 1 m/s 744 mmHg 84%
    03:00 +12°C° 0 mm 0 m/s 744 mmHg 85%
    04:00 +12°C° 0 mm 0 m/s 744 mmHg 86%
    05:00 +11°C° 0 mm 0 m/s 744 mmHg 88%
    06:00 +11°C° 0 mm 0 m/s 745 mmHg 89%
    07:00 +14°C° 0 mm 1 m/s 745 mmHg 81%
    08:00 +15°C° 0 mm 1 m/s 745 mmHg 73%
    09:00 +18°C° 0 mm 1 m/s 745 mmHg 65%
    10:00 +18°C° 0 mm 2 m/s 745 mmHg 60%
    11:00 +19°C° 0 mm 3 m/s 745 mmHg 55%
    12:00 +20°C° 0 mm 3 m/s 745 mmHg 50%
    13:00 +20°C° 0 mm 3 m/s 745 mmHg 51%
    14:00 +20°C° 0 mm 4 m/s 744 mmHg 52%
    15:00 +20°C° 0 mm 4 m/s 744 mmHg 52%
    16:00 +19°C° 0 mm 3 m/s 744 mmHg 59%
    17:00 +18°C° 0 mm 3 m/s 744 mmHg 65%
    18:00 +17°C° 0 mm 2 m/s 744 mmHg 71%
    19:00 +16°C° 0 mm 2 m/s 744 mmHg 74%
    20:00 +16°C° 0 mm 1 m/s 744 mmHg 76%
    21:00 +15°C° 0 mm 1 m/s 744 mmHg 78%
    22:00 +15°C° 0 mm 1 m/s 744 mmHg 79%
    23:00 +15°C° 0 mm 1 m/s 744 mmHg 80%

    25 Octombrie, Vineri

    Timp Temperatura Precipitaţii Vânt Presiune Umiditate
    00:00 +15°C° 0 mm 1 m/s 744 mmHg 81%
    01:00 +14°C° 0 mm 1 m/s 743 mmHg 82%
    02:00 +14°C° 0 mm 1 m/s 743 mmHg 83%
    03:00 +14°C° 0 mm 1 m/s 743 mmHg 83%
    04:00 +14°C° 0 mm 1 m/s 743 mmHg 84%
    05:00 +14°C° 0 mm 1 m/s 743 mmHg 85%
    06:00 +14°C° 0 mm 1 m/s 743 mmHg 85%
    07:00 +15°C° 0 mm 2 m/s 743 mmHg 79%
    08:00 +17°C° 0 mm 2 m/s 744 mmHg 72%
    09:00 +18°C° 0 mm 3 m/s 744 mmHg 66%
    10:00 +19°C° 0 mm 3 m/s 744 mmHg 62%
    11:00 +20°C° 0 mm 4 m/s 744 mmHg 59%
    12:00 +21°C° 0 mm 4 m/s 744 mmHg 55%
    13:00 +21°C° 0 mm 4 m/s 743 mmHg 56%
    14:00 +21°C° 0 mm 4 m/s 743 mmHg 57%
    15:00 +21°C° 0 mm 4 m/s 743 mmHg 58%
    16:00 +20°C° 0 mm 3 m/s 743 mmHg 64%
    17:00 +19°C° 0 mm 3 m/s 743 mmHg 70%
    18:00 +18°C° 0 mm 2 m/s 743 mmHg 75%
    19:00 +18°C° 0 mm 2 m/s 743 mmHg 78%
    20:00 +17°C° 0 mm 2 m/s 744 mmHg 80%
    21:00 +18°C° 0 mm 1 m/s 744 mmHg 82%
    22:00 +18°C° 0 mm 1 m/s 744 mmHg 82%
    23:00 +18°C° 0 mm 1 m/s 744 mmHg 82%

    26 Octombrie, Sâmbătă

    Timp Temperatura Precipitaţii Vânt Presiune Umiditate
    00:00 +18°C° 0 mm 1 m/s 743 mmHg 82%
    01:00 +18°C° 0.2 mm 1 m/s 743 mmHg 84%
    02:00 +18°C° 0.2 mm 1 m/s 743 mmHg 86%
    03:00 +18°C° 0.2 mm 1 m/s 743 mmHg 88%
    04:00 +16°C° 0 mm 1 m/s 743 mmHg 89%
    05:00 +16°C° 0 mm 1 m/s 743 mmHg 90%
    06:00 +16°C° 0 mm 1 m/s 743 mmHg 91%
    07:00 +18°C° 0 mm 1 m/s 744 mmHg 83%
    08:00 +19°C° 0 mm 1 m/s 744 mmHg 76%
    09:00 +19°C° 0 mm 2 m/s 744 mmHg 69%
    10:00 +19°C° 0 mm 2 m/s 744 mmHg 60%
    11:00 +20°C° 0 mm 3 m/s 744 mmHg 50%
    12:00 +21°C° 0 mm 4 m/s 744 mmHg 41%
    13:00 +21°C° 0 mm 3 m/s 744 mmHg 38%
    14:00 +21°C° 0 mm 3 m/s 744 mmHg 36%
    15:00 +21°C° 0 mm 3 m/s 744 mmHg 33%
    16:00 +20°C° 0 mm 2 m/s 744 mmHg 38%
    17:00 +19°C° 0 mm 2 m/s 744 mmHg 44%
    18:00 +19°C° 0 mm 1 m/s 743 mmHg 49%
    19:00 +18°C° 0 mm 1 m/s 743 mmHg 51%
    20:00 +18°C° 0 mm 1 m/s 743 mmHg 53%
    21:00 +15°C° 0 mm 0 m/s 743 mmHg 55%
    22:00 +15°C° 0 mm 0 m/s 743 mmHg 53%
    23:00 +15°C° 0 mm 0 m/s 743 mmHg 51%

    27 Octombrie, Duminică

    Timp Temperatura Precipitaţii Vânt Presiune Umiditate
    00:00 +15°C° 0 mm 0 m/s 743 mmHg 50%
    01:00 +15°C° 0 mm 0 m/s 743 mmHg 49%
    02:00 +15°C° 0 mm 0 m/s 743 mmHg 49%
    03:00 +14°C° 0 mm 0 m/s 743 mmHg 48%
    04:00 +14°C° 0 mm 0 m/s 743 mmHg 48%
    05:00 +14°C° 0 mm 0 m/s 743 mmHg 47%
    06:00 +14°C° 0 mm 0 m/s 743 mmHg 46%
    07:00 +15°C° 0 mm 0 m/s 744 mmHg 43%
    08:00 +17°C° 0 mm 0 m/s 744 mmHg 40%
    09:00 +18°C° 0 mm 0 m/s 744 mmHg 37%
    10:00 +19°C° 0 mm 0 m/s 744 mmHg 36%
    11:00 +21°C° 0 mm 1 m/s 744 mmHg 35%
    12:00 +22°C° 0 mm 1 m/s 744 mmHg 33%
    13:00 +21°C° 0 mm 2 m/s 744 mmHg 35%
    14:00 +21°C° 0 mm 3 m/s 744 mmHg 36%
    15:00 +21°C° 0 mm 3 m/s 743 mmHg 37%
    16:00 +20°C° 0 mm 3 m/s 743 mmHg 42%
    17:00 +18°C° 0 mm 2 m/s 743 mmHg 48%
    18:00 +18°C° 0 mm 1 m/s 743 mmHg 54%
    19:00 +18°C° 0 mm 1 m/s 743 mmHg 56%
    20:00 +16°C° 0 mm 1 m/s 743 mmHg 58%
    21:00 +14°C° 0 mm 0 m/s 743 mmHg 59%
    22:00 +14°C° 0 mm 0 m/s 743 mmHg 60%
    23:00 +13°C° 0 mm 0 m/s 743 mmHg 60%
    Arată mai mult